This is the latest recevied weather packets stored in our database for station/object KE5VT. If no packets are shown the sender has not sent any weather packets the latest 10 day(s).
| Time | Temp. | Humidity | Pressure | Rain* | Wind** | Luminosity | Snow |
|---|---|---|---|---|---|---|---|
| 1778000657 | 23.89° C | 45% | 1012.5 hPa | 0 mm | - | 631 W/m² | - |
| 1778000352 | 24.44° C | 43% | 1012.7 hPa | 0 mm | - | 573 W/m² | - |
| 1778000049 | 26.11° C | 42% | 1012.6 hPa | 0 mm | - | 771 W/m² | - |
| 1777999744 | 25.56° C | 39% | 1012.6 hPa | 0 mm | - | 756 W/m² | - |
| 1777999441 | 25° C | 42% | 1012.8 hPa | 0 mm | - | 730 W/m² | - |
| 1777999139 | 25.56° C | 41% | 1012.8 hPa | 0 mm | - | 725 W/m² | - |
| 1777998838 | 24.44° C | 43% | 1012.8 hPa | 0 mm | - | 774 W/m² | - |
| 1777998536 | 23.89° C | 46% | 1012.9 hPa | 0 mm | - | 742 W/m² | - |
| 1777998231 | 23.89° C | 47% | 1013.1 hPa | 0 mm | - | 736 W/m² | - |
| 1777997929 | 22.78° C | 49% | 1013.1 hPa | 0 mm | - | 670 W/m² | - |
| 1777997626 | 22.78° C | 51% | 1013.5 hPa | 0 mm | - | 564 W/m² | - |
| 1777997323 | 23.33° C | 53% | 1013.2 hPa | 0 mm | - | 503 W/m² | - |
| 1777997021 | 23.33° C | 54% | 1013.2 hPa | 0 mm | - | 500 W/m² | - |
| 1777996717 | 22.78° C | 55% | 1013.4 hPa | 0 mm | - | 511 W/m² | - |
| 1777996413 | 22.78° C | 54% | 1013.6 hPa | 0 mm | - | 628 W/m² | - |
| 1777996110 | 23.33° C | 53% | 1013.5 hPa | 0 mm | - | 678 W/m² | - |
| 1777995806 | 22.78° C | 56% | 1013.5 hPa | 0 mm | - | 650 W/m² | - |
| 1777995503 | 22.22° C | 59% | 1013.6 hPa | 0 mm | - | 378 W/m² | - |
| 1777995200 | 21.67° C | 62% | 1013.4 hPa | 0 mm | - | 368 W/m² | - |
| 1777994897 | 21.11° C | 62% | 1013.6 hPa | 0 mm | - | 86 W/m² | - |
| 1777994594 | 21.11° C | 60% | 1013.6 hPa | 0 mm | - | 63 W/m² | - |
| 1777994294 | 21.11° C | 64% | 1013.6 hPa | 0 mm | - | 70 W/m² | - |
| 1777993991 | 21.11° C | 65% | 1013.8 hPa | 0 mm | - | 57 W/m² | - |
| 1777993688 | 21.11° C | 65% | 1013.5 hPa | 0 mm | - | 81 W/m² | - |
| 1777993385 | 20.56° C | 65% | 1013.6 hPa | 0 mm | - | 51 W/m² | - |
* Rain latest hour (hover to see other rain measurements)
** Current wind speed in m/s (hover to see current wind gust speed)